Regional Weather Roundup
Issued by NWS Sterling, VA

Home | Current Version | Previous Version | Graphics & Text | Print | Product List | Glossary On
Versions: 1 2 3 4 5 6 7 8 9 10 11 12 13 14 15 16 17 18 19 20 21 22 23 24 25 26 27
000
ASUS41 KLWX 171810
RWRLWX

REGIONAL WEATHER ROUNDUP
NATIONAL WEATHER SERVICE BALTIMORE MD/WASHINGTON DC
200 PM EDT THU APR 17 2014

Note: "FAIR" indicates few or no clouds below 12,000 feet
with no significant weather and/or obstructions to visibility.
 TC=TEMPERATURE CELSIUS

 * =Non NWS site. Station does not report precipitation (e.g. rain,
    snow, etc.), thunder, or fog.

DCZ001-MDZ009-015-VAZ040>042-051-053>054-171900-
WASHINGTON METRO

CITY           SKY/WX    TMP DP  RH WIND       PRES   REMARKS
WASHINGTON NAT MOSUNNY   54  32  43 E10       30.62F
DULLES         MOSUNNY   52  28  39 SE6G16    30.60F
ANDREWS AFB    MOSUNNY   51  33  50 E12       30.61F
FT BELVOIR     SUNNY     54  32  43 VRB6      30.61F
QUANTICO       MOSUNNY   54  34  46 S8        30.61F
COLLEGE PARK*  SUNNY     52  32  46 E8        30.62F
LEESBURG*      SUNNY     54  30  40 E5        30.60F
MANASSAS*      SUNNY     54  27  35 E6        30.60S
GAITHERSBURG*  MOSUNNY   52  28  40 E12       30.62F

$$

MDZ006>007-011-014-171900-
BALTIMORE METRO

CITY           SKY/WX    TMP DP  RH WIND       PRES   REMARKS
BWI AIRPORT    PTSUNNY   51  31  46 E16G22    30.62F
MD SCIENCE CTR   N/A     53  32  44 MISG      30.66F
MARTIN STATE   MOSUNNY   52  36  54 E12       30.65F
ANNAPOLIS      PTSUNNY   49  33  54 SE7       30.63F
FORT MEADE*    PTSUNNY   52  32  46 E10G17    30.64F

$$

MDZ012-015-019>023-171900-
MARYLAND EASTERN SHORE

CITY           SKY/WX    TMP DP  RH WIND       PRES   REMARKS
OCEAN CITY     CLOUDY    47  33  58 NE15G21   30.64F
SALISBURY      MOSUNNY   52  34  50 NE16      30.62F
BAY BRIDGE AP* MOSUNNY   52  30  43 SE8       30.64S
CAMBRIDGE*     MOSUNNY   52  32  46 E10G16    30.62F
EASTON*        PTSUNNY   52  34  50 E12G18    30.67F

$$

MDZ017>025-171900-
SOUTHERN MARYLAND

CITY           SKY/WX    TMP DP  RH WIND       PRES   REMARKS
PATUXENT RIVER MOSUNNY   50  31  48 E7        30.61F
ST INIGOES     MOSUNNY   50  33  52 E12G18    30.61F
LEONARDTOWN*   SUNNY     50  32  50 E7G18     30.63F

$$

MDZ003>005-171900-
NORTH CENTRAL MARYLAND

CITY           SKY/WX    TMP DP  RH WIND       PRES   REMARKS
FREDERICK*     SUNNY     55  30  38 SW6       30.63F
HAGERSTOWN APT SUNNY     51  24  34 MISG      30.57F
WESTMINSTER*   SUNNY     54  27  35 E6        30.59F

$$

MDZ501>502-171900-
WESTERN MARYLAND

CITY           SKY/WX    TMP DP  RH WIND       PRES   REMARKS
OAKLAND*       MOSUNNY   46  10  23 SE18      30.43F
CUMBERLAND*    MOSUNNY   54  27  35 SE8       30.56F

$$

VAZ025>031-171900-
SHENANDOAH VALLEY

CITY           SKY/WX    TMP DP  RH WIND       PRES   REMARKS
WINCHESTER*    SUNNY     54  28  37 SE13      30.56F
STAUNTON*      SUNNY     50  21  32 CALM      30.55F

$$

WVZ021-048>050-054>055-171900-
EASTERN WEST VIRGINIA PANHANDLE

CITY           SKY/WX    TMP DP  RH WIND       PRES   REMARKS
MARTINSBURG    SUNNY     52  25  35 VRB6G18   30.57F
PETERSBURG*    SUNNY     59  31  34 NE8       30.51F

$$

VAZ036>039-050-171900-
CENTRAL FOOTHILLS

CITY           SKY/WX    TMP DP  RH WIND       PRES   REMARKS
CHARLOTTESVILL SUNNY     54  27  35 MISG      30.56F
CULPEPER*      SUNNY     57  21  24 S5        30.59F

$$

VAZ055>057-171900-
NORTH AND CENTRAL PIEDMONT

CITY           SKY/WX    TMP DP  RH WIND       PRES   REMARKS
FREDERICKSBRG* SUNNY     55  34  44 SE7       30.59F
STAFFORD*      SUNNY     54  36  50 E7        30.64F

$$

NCZ024-NYZ072-PAZ021-071-VAZ022-071-171900-
OTHER REGIONAL OBSERVATIONS

CITY           SKY/WX    TMP DP  RH WIND       PRES   REMARKS
NEW YORK CITY  CLOUDY    46  25  43 NE8       30.72F
PHILADELPHIA   MOSUNNY   53  28  38 E13       30.66F
PITTSBURGH     PTSUNNY   57  24  28 SE6       30.41F
ROANOKE        PTSUNNY   51  25  36 VRB7      30.54F
RICHMOND       CLOUDY    59  33  37 E8        30.56F
RALEIGH        PTSUNNY   59  31  34 NE12      30.51F

$$

ANZ530>537-171900-
MARINE OBSERVATIONS

STATION/POSITION TIME  TEMP    WIND        PRES
                       AIR SEA DIR/SP/G
                 (UTC) (F)     (DEG/KT/KT) (MB)
THOMAS PT LIGHT  1800   47 52   90/  9/ 12 1037.8F
BALT KEY BRIDGE  1800   46     110/ 10/ 13 1037.7F
COVE POINT       1800   47     110/  8/ 10 1036.8F
LEWISETTA        1800   47 52   80/  9/ 11 1036.3F
SOLOMONS ISLAND  1800      51                N/A
PINEY POINT      1800          120/ 10/ 12   N/A

$$




USA.gov is the U.S. government's official web portal to all federal, state and local government web resources and services.